Terug naar catalogus

ICEYE-X73

ActiefWetenschapSSO
NORAD 68496·PAYLOAD·🇵🇹 Portugal

Gelanceerd Mar 30, 2026 vanaf Vandenberg Space Force Base

Loading…

Volgende Passages (komende 24 uur)

TLE

VersSource: Space-Track

Epoch: Sep 14, 2026, 08:09 UTC

1 68496U 26067CJ  26257.33964290  .00001446  00000-0  14607-3 0  9998
2 68496  97.7702 214.3965 0002760  46.4995 313.6453 14.92568429 25023

Volg ICEYE-X73 in realtime met AllMySat

Download on the App Store